| time (UTC) | temp F | wind direction | speed MPH | gust MPH | rain 1hr in | rain 24hr in | rain mn in | humidity % | barometer mb |
| 20260506212353 | 69 | 140 | 0.0 | 2.0 | 0.00 | 0.05 | 0.05 | 80 | 1005.5 |
| 20260506211848 | 69 | 150 | 1.0 | 3.0 | 0.00 | 0.05 | 0.05 | 79 | 1005.3 |
| 20260506211345 | 69 | 159 | 2.0 | 3.0 | 0.00 | 0.05 | 0.05 | 79 | 1005.4 |
| 20260506210842 | 69 | 106 | 2.0 | 5.0 | 0.00 | 0.05 | 0.05 | 80 | 1005.2 |
| 20260506210339 | 69 | 225 | 5.0 | 5.0 | 0.00 | 0.05 | 0.05 | 78 | 1005.3 |
| 20260506205836 | 69 | 233 | 0.0 | 3.0 | 0.00 | 0.05 | 0.05 | 79 | 1005.2 |
| 20260506205332 | 69 | 89 | 0.0 | 3.0 | 0.00 | 0.05 | 0.05 | 80 | 1005.0 |
| 20260506204829 | 68 | 63 | 1.0 | 3.0 | 0.00 | 0.05 | 0.05 | 81 | 1005.5 |
| 20260506204326 | 68 | 311 | 2.0 | 3.0 | 0.00 | 0.05 | 0.05 | 81 | 1005.1 |
| 20260506203824 | 68 | 177 | 0.0 | 2.0 | 0.00 | 0.05 | 0.05 | 82 | 1005.2 |
| 20260506203321 | 68 | 160 | 1.0 | 3.0 | 0.00 | 0.05 | 0.05 | 82 | 1004.9 |
| 20260506202817 | 68 | 143 | 2.0 | 8.0 | 0.00 | 0.05 | 0.05 | 81 | 1005.0 |
| 20260506202315 | 68 | 117 | 2.0 | 5.0 | 0.00 | 0.05 | 0.05 | 82 | 1005.2 |
| 20260506201811 | 68 | 165 | 2.0 | 2.0 | 0.00 | 0.05 | 0.05 | 82 | 1005.2 |
| 20260506201309 | 68 | 156 | 0.0 | 3.0 | 0.00 | 0.05 | 0.05 | 82 | 1005.3 |
| 20260506200805 | 68 | 76 | 2.0 | 4.0 | 0.00 | 0.05 | 0.05 | 82 | 1005.3 |
| 20260506200301 | 67 | 312 | 1.0 | 3.0 | 0.00 | 0.05 | 0.05 | 83 | 1005.1 |
| 20260506195758 | 67 | 148 | 1.0 | 3.0 | 0.00 | 0.05 | 0.05 | 83 | 1005.2 |
| 20260506195255 | 67 | 97 | 3.0 | 4.0 | 0.00 | 0.05 | 0.05 | 83 | 1005.5 |
| 20260506194752 | 67 | 218 | 0.0 | 2.0 | 0.00 | 0.05 | 0.05 | 83 | 1005.8 |
| 20260506194248 | 67 | 267 | 2.0 | 4.0 | 0.00 | 0.05 | 0.05 | 83 | 1005.6 |
| 20260506193746 | 68 | 324 | 1.0 | 5.0 | 0.00 | 0.05 | 0.05 | 82 | 1005.5 |
| 20260506193243 | 68 | 192 | 0.0 | 4.0 | 0.00 | 0.05 | 0.05 | 82 | 1005.8 |
| 20260506192739 | 68 | 126 | 3.0 | 5.0 | 0.00 | 0.05 | 0.05 | 82 | 1005.7 |
| 20260506192236 | 68 | 196 | 0.0 | 3.0 | 0.00 | 0.05 | 0.05 | 82 | 1005.7 |
| 20260506191732 | 68 | 20 | 0.0 | 3.0 | 0.00 | 0.05 | 0.05 | 83 | 1005.6 |
| 20260506191229 | 68 | 113 | 2.0 | 3.0 | 0.00 | 0.05 | 0.05 | 83 | 1005.8 |
| 20260506190726 | 68 | 154 | 0.0 | 4.0 | 0.00 | 0.05 | 0.05 | 83 | 1005.9 |
| 20260506190223 | 67 | 326 | 0.0 | 4.0 | 0.00 | 0.05 | 0.05 | 82 | 1005.7 |
| 20260506185720 | 67 | 74 | 1.0 | 3.0 | 0.00 | 0.05 | 0.05 | 84 | 1005.8 |
| 20260506185216 | 67 | 159 | 3.0 | 3.0 | 0.00 | 0.05 | 0.05 | 83 | 1006.3 |
| 20260506184714 | 67 | 146 | 2.0 | 4.0 | 0.00 | 0.05 | 0.05 | 82 | 1006.1 |
| 20260506184211 | 67 | 29 | 0.0 | 4.0 | 0.00 | 0.05 | 0.05 | 84 | 1006.4 |
| 20260506183708 | 67 | 134 | 1.0 | 3.0 | 0.00 | 0.05 | 0.05 | 83 | 1006.5 |
| 20260506183203 | 67 | 156 | 4.0 | 4.0 | 0.00 | 0.05 | 0.05 | 82 | 1006.3 |
| 20260506182701 | 67 | 124 | 0.0 | 4.0 | 0.00 | 0.05 | 0.05 | 83 | 1006.3 |
| 20260506182158 | 67 | 83 | 2.0 | 4.0 | 0.00 | 0.05 | 0.05 | 83 | 1006.0 |
| 20260506181655 | 66 | 133 | 0.0 | 3.0 | 0.00 | 0.05 | 0.05 | 84 | 1006.2 |
| 20260506181152 | 66 | 150 | 3.0 | 4.0 | 0.00 | 0.05 | 0.05 | 85 | 1006.1 |
| 20260506180649 | 66 | 102 | 1.0 | 3.0 | 0.00 | 0.05 | 0.05 | 86 | 1006.4 |
| 20260506180140 | 66 | 112 | 2.0 | 3.0 | 0.00 | 0.05 | 0.05 | 87 | 1006.5 |
| 20260506175637 | 66 | 135 | 2.0 | 2.0 | 0.00 | 0.05 | 0.05 | 88 | 1006.6 |
| 20260506175132 | 65 | 226 | 1.0 | 2.0 | 0.00 | 0.05 | 0.05 | 89 | 1006.5 |
| 20260506174626 | 65 | 35 | 2.0 | 3.0 | 0.00 | 0.05 | 0.05 | 88 | 1006.6 |
| 20260506174122 | 65 | 76 | 2.0 | 3.0 | 0.00 | 0.05 | 0.05 | 90 | 1006.7 |
| 20260506173620 | 65 | 70 | 1.0 | 3.0 | 0.00 | 0.05 | 0.05 | 90 | 1006.7 |
| 20260506173116 | 64 | 107 | 2.0 | 3.0 | 0.00 | 0.05 | 0.05 | 90 | 1006.6 |
| 20260506172614 | 64 | 195 | 0.0 | 2.0 | 0.00 | 0.05 | 0.05 | 90 | 1006.8 |
| 20260506172110 | 64 | 94 | 2.0 | 5.0 | 0.00 | 0.05 | 0.05 | 91 | 1006.9 |
| 20260506171608 | 64 | 130 | 0.0 | 4.0 | 0.00 | 0.05 | 0.05 | 91 | 1006.7 |
| 20260506171105 | 63 | 89 | 0.0 | 2.0 | 0.00 | 0.05 | 0.05 | 91 | 1006.9 |
| 20260506170601 | 63 | 87 | 1.0 | 3.0 | 0.00 | 0.05 | 0.05 | 92 | 1006.6 |
| 20260506170054 | 63 | 99 | 1.0 | 2.0 | 0.00 | 0.05 | 0.05 | 92 | 1006.7 |
| 20260506165552 | 63 | 104 | 2.0 | 5.0 | 0.00 | 0.05 | 0.05 | 92 | 1007.1 |
| 20260506165048 | 63 | 108 | 1.0 | 4.0 | 0.00 | 0.05 | 0.05 | 92 | 1006.9 |
| 20260506164545 | 63 | 299 | 0.0 | 3.0 | 0.00 | 0.05 | 0.05 | 93 | 1006.9 |
| 20260506164042 | 62 | 293 | 0.0 | 3.0 | 0.00 | 0.05 | 0.05 | 93 | 1006.9 |
| 20260506163538 | 62 | 96 | 0.0 | 3.0 | 0.02 | 0.05 | 0.05 | 93 | 1006.9 |
| 20260506163034 | 62 | 110 | 1.0 | 3.0 | 0.02 | 0.05 | 0.05 | 93 | 1006.9 |
| 20260506162530 | 62 | 227 | 2.0 | 3.0 | 0.02 | 0.04 | 0.04 | 93 | 1006.8 |
| 20260506162027 | 62 | 152 | 0.0 | 3.0 | 0.05 | 0.04 | 0.04 | 93 | 1007.3 |
| 20260506161524 | 62 | 158 | 2.0 | 2.0 | 0.02 | 0.04 | 0.04 | 93 | 1007.3 |
| 20260506161016 | 61 | 86 | 2.0 | 4.0 | 0.05 | 0.04 | 0.04 | 93 | 1007.6 |
| 20260506160513 | 61 | 123 | 2.0 | 3.0 | 0.07 | 0.03 | 0.03 | 92 | 1007.3 |
| 20260506160010 | 62 | 141 | 2.0 | 4.0 | 0.09 | 0.02 | 0.02 | 92 | 1007.8 |
| 20260506155509 | 62 | 63 | 1.0 | 3.0 | 0.09 | 0.02 | 0.02 | 91 | 1007.8 |
| 20260506153640 | 63 | 72 | 3.0 | 3.0 | 0.02 | 0.00 | 0.00 | 88 | 1007.8 |
| 20260506153138 | 63 | 60 | 3.0 | 3.0 | 0.00 | 0.00 | 0.00 | 87 | 1008.0 |
| 20260506152634 | 64 | 100 | 1.0 | 3.0 | 0.00 | 0.00 | 0.00 | 86 | 1008.3 |
| 20260506152132 | 64 | 100 | 1.0 | 3.0 | 0.00 | 0.00 | 0.00 | 86 | 1008.3 |
| 20260506151631 | 64 | 118 | 2.0 | 3.0 | 0.00 | 0.00 | 0.00 | 85 | 1008.2 |
| 20260506151127 | 64 | 103 | 1.0 | 4.0 | 0.00 | 0.00 | 0.00 | 84 | 1008.2 |
| 20260506150624 | 64 | 104 | 2.0 | 4.0 | 0.00 | 0.00 | 0.00 | 84 | 1008.3 |
| 20260506150121 | 65 | 117 | 3.0 | 3.0 | 0.00 | 0.00 | 0.00 | 84 | 1008.3 |
| 20260506145618 | 65 | 204 | 2.0 | 2.0 | 0.00 | 0.00 | 0.00 | 85 | 1008.4 |
| 20260506145115 | 64 | 89 | 0.0 | 3.0 | 0.00 | 0.00 | 0.00 | 84 | 1008.2 |
| 20260506144612 | 64 | 324 | 0.0 | 2.0 | 0.00 | 0.00 | 0.00 | 85 | 1008.0 |
| 20260506144109 | 64 | 89 | 0.0 | 1.0 | 0.00 | 0.00 | 0.00 | 85 | 1008.2 |
| 20260506143607 | 64 | 108 | 2.0 | 2.0 | 0.00 | 0.00 | 0.00 | 84 | 1008.1 |
| 20260506143104 | 64 | 37 | 0.0 | 0.0 | 0.00 | 0.00 | 0.00 | 84 | 1007.9 |
| 20260506142602 | 64 | 89 | 0.0 | 2.0 | 0.00 | 0.00 | 0.00 | 82 | 1007.9 |
| 20260506142100 | 65 | 137 | 1.0 | 2.0 | 0.00 | 0.00 | 0.00 | 80 | 1007.9 |
| 20260506141557 | 66 | 342 | 0.0 | 1.0 | 0.00 | 0.00 | 0.00 | 78 | 1008.0 |
| 20260506141056 | 66 | 102 | 1.0 | 4.0 | 0.00 | 0.00 | 0.00 | 76 | 1007.9 |
| 20260506140553 | 66 | 80 | 2.0 | 2.0 | 0.00 | 0.00 | 0.00 | 74 | 1008.0 |
| 20260506140050 | 67 | 159 | 0.0 | 3.0 | 0.00 | 0.00 | 0.00 | 72 | 1007.8 |
| 20260506135547 | 67 | 229 | 4.0 | 5.0 | 0.00 | 0.00 | 0.00 | 71 | 1008.0 |
| 20260506135043 | 67 | 83 | 0.0 | 3.0 | 0.00 | 0.00 | 0.00 | 71 | 1008.2 |
| 20260506134540 | 67 | 141 | 2.0 | 3.0 | 0.00 | 0.00 | 0.00 | 71 | 1008.3 |
| 20260506134035 | 67 | 124 | 0.0 | 4.0 | 0.00 | 0.00 | 0.00 | 71 | 1008.3 |
| 20260506133533 | 67 | 340 | 0.0 | 3.0 | 0.00 | 0.00 | 0.00 | 71 | 1008.0 |
| 20260506133030 | 67 | 144 | 3.0 | 4.0 | 0.00 | 0.00 | 0.00 | 70 | 1008.0 |
| 20260506132527 | 67 | 50 | 3.0 | 3.0 | 0.00 | 0.00 | 0.00 | 71 | 1008.0 |
| 20260506132024 | 67 | 103 | 1.0 | 3.0 | 0.00 | 0.00 | 0.00 | 71 | 1008.0 |
| 20260506131521 | 67 | 57 | 2.0 | 4.0 | 0.00 | 0.00 | 0.00 | 71 | 1008.0 |
| 20260506131018 | 67 | 189 | 3.0 | 3.0 | 0.00 | 0.00 | 0.00 | 71 | 1007.8 |
| 20260506130514 | 67 | 121 | 3.0 | 5.0 | 0.00 | 0.00 | 0.00 | 70 | 1007.8 |
| 20260506130012 | 67 | 99 | 3.0 | 3.0 | 0.00 | 0.00 | 0.00 | 71 | 1007.8 |
| 20260506125510 | 67 | 318 | 2.0 | 3.0 | 0.00 | 0.00 | 0.00 | 71 | 1007.7 |
| 20260506125008 | 67 | 166 | 3.0 | 5.0 | 0.00 | 0.00 | 0.00 | 70 | 1007.8 |
| 20260506124505 | 66 | 101 | 1.0 | 4.0 | 0.00 | 0.00 | 0.00 | 71 | 1007.8 |
| 20260506124003 | 66 | 85 | 2.0 | 5.0 | 0.00 | 0.00 | 0.00 | 71 | 1008.2 |
| 20260506123501 | 66 | 115 | 4.0 | 5.0 | 0.00 | 0.00 | 0.00 | 72 | 1007.4 |
| 20260506122958 | 66 | 64 | 3.0 | 5.0 | 0.00 | 0.00 | 0.00 | 71 | 1007.9 |
| 20260506122455 | 66 | 103 | 2.0 | 3.0 | 0.00 | 0.00 | 0.00 | 72 | 1008.0 |
| 20260506121953 | 66 | 109 | 2.0 | 5.0 | 0.00 | 0.00 | 0.00 | 72 | 1008.1 |
| 20260506121450 | 65 | 48 | 2.0 | 5.0 | 0.00 | 0.00 | 0.00 | 73 | 1008.3 |
| 20260506120947 | 65 | 108 | 3.0 | 5.0 | 0.00 | 0.00 | 0.00 | 73 | 1008.2 |
| 20260506120444 | 65 | 85 | 2.0 | 4.0 | 0.00 | 0.00 | 0.00 | 73 | 1008.0 |
| 20260506115941 | 65 | 47 | 1.0 | 4.0 | 0.00 | 0.00 | 0.00 | 73 | 1008.1 |
| 20260506115439 | 65 | 228 | 0.0 | 4.0 | 0.00 | 0.00 | 0.00 | 73 | 1008.5 |
| 20260506114938 | 65 | 109 | 1.0 | 3.0 | 0.00 | 0.00 | 0.00 | 72 | 1008.3 |
| 20260506114435 | 65 | 32 | 1.0 | 5.0 | 0.00 | 0.00 | 0.00 | 72 | 1008.2 |
| 20260506113933 | 65 | 94 | 2.0 | 6.0 | 0.00 | 0.00 | 0.00 | 72 | 1008.2 |
| 20260506113431 | 65 | 81 | 2.0 | 5.0 | 0.00 | 0.00 | 0.00 | 72 | 1008.0 |
| 20260506112927 | 65 | 111 | 0.0 | 3.0 | 0.00 | 0.00 | 0.00 | 72 | 1008.1 |
| 20260506112425 | 65 | 110 | 4.0 | 4.0 | 0.00 | 0.00 | 0.00 | 72 | 1008.0 |
| 20260506111922 | 65 | 224 | 2.0 | 3.0 | 0.00 | 0.00 | 0.00 | 72 | 1007.9 |
| 20260506111420 | 65 | 92 | 2.0 | 6.0 | 0.00 | 0.00 | 0.00 | 72 | 1008.0 |
| 20260506110916 | 64 | 102 | 2.0 | 3.0 | 0.00 | 0.00 | 0.00 | 73 | 1007.8 |
| 20260506110414 | 64 | 130 | 4.0 | 4.0 | 0.00 | 0.00 | 0.00 | 74 | 1007.9 |
| 20260506105911 | 64 | 317 | 0.0 | 3.0 | 0.00 | 0.00 | 0.00 | 73 | 1007.8 |
| 20260506105407 | 64 | 70 | 2.0 | 2.0 | 0.00 | 0.00 | 0.00 | 73 | 1007.8 |
| 20260506104904 | 64 | 82 | 1.0 | 3.0 | 0.00 | 0.00 | 0.00 | 73 | 1008.0 |
| 20260506104402 | 64 | 322 | 2.0 | 3.0 | 0.00 | 0.00 | 0.00 | 73 | 1007.8 |
| 20260506103900 | 64 | 68 | 2.0 | 3.0 | 0.00 | 0.00 | 0.00 | 73 | 1007.9 |
| 20260506103357 | 64 | 111 | 2.0 | 3.0 | 0.00 | 0.00 | 0.00 | 72 | 1007.7 |
| 20260506102854 | 64 | 115 | 2.0 | 4.0 | 0.00 | 0.00 | 0.00 | 73 | 1007.5 |
| 20260506102352 | 64 | 80 | 1.0 | 6.0 | 0.00 | 0.00 | 0.00 | 74 | 1007.7 |
| 20260506101849 | 64 | 138 | 0.0 | 6.0 | 0.00 | 0.00 | 0.00 | 74 | 1007.6 |
| 20260506101345 | 64 | 151 | 1.0 | 3.0 | 0.00 | 0.00 | 0.00 | 74 | 1007.7 |
| 20260506100843 | 64 | 124 | 1.0 | 3.0 | 0.00 | 0.00 | 0.00 | 74 | 1007.6 |
| 20260506100341 | 64 | 78 | 2.0 | 3.0 | 0.00 | 0.00 | 0.00 | 74 | 1007.8 |
| 20260506095839 | 64 | 137 | 2.0 | 4.0 | 0.00 | 0.00 | 0.00 | 74 | 1007.8 |
| 20260506095336 | 64 | 145 | 0.0 | 4.0 | 0.00 | 0.00 | 0.00 | 74 | 1007.5 |
| 20260506094833 | 64 | 102 | 2.0 | 3.0 | 0.00 | 0.00 | 0.00 | 74 | 1007.7 |
| 20260506094332 | 64 | 86 | 2.0 | 4.0 | 0.00 | 0.00 | 0.00 | 74 | 1007.7 |
| 20260506093830 | 64 | 26 | 1.0 | 3.0 | 0.00 | 0.00 | 0.00 | 74 | 1007.6 |
| 20260506093326 | 64 | 180 | 1.0 | 4.0 | 0.00 | 0.00 | 0.00 | 74 | 1007.7 |
| 20260506092824 | 64 | 122 | 2.0 | 4.0 | 0.00 | 0.00 | 0.00 | 75 | 1007.5 |
| 20260506092322 | 64 | 124 | 2.0 | 3.0 | 0.00 | 0.00 | 0.00 | 75 | 1007.7 |
| 20260506091818 | 64 | 94 | 2.0 | 5.0 | 0.00 | 0.00 | 0.00 | 75 | 1007.6 |
| 20260506091316 | 64 | 119 | 2.0 | 6.0 | 0.00 | 0.00 | 0.00 | 75 | 1007.6 |
| 20260506090814 | 64 | 147 | 2.0 | 4.0 | 0.00 | 0.00 | 0.00 | 75 | 1007.6 |
| 20260506090311 | 64 | 115 | 2.0 | 4.0 | 0.00 | 0.00 | 0.00 | 75 | 1007.6 |
| 20260506085807 | 64 | 105 | 2.0 | 4.0 | 0.00 | 0.00 | 0.00 | 75 | 1007.8 |
| 20260506085306 | 64 | 161 | 2.0 | 4.0 | 0.00 | 0.00 | 0.00 | 75 | 1007.5 |
| 20260506084800 | 64 | 125 | 2.0 | 4.0 | 0.00 | 0.00 | 0.00 | 75 | 1007.8 |
| 20260506084257 | 64 | 92 | 1.0 | 5.0 | 0.00 | 0.00 | 0.00 | 75 | 1007.9 |
| 20260506083754 | 65 | 112 | 3.0 | 4.0 | 0.00 | 0.00 | 0.00 | 75 | 1007.7 |
| 20260506083251 | 65 | 110 | 1.0 | 5.0 | 0.00 | 0.00 | 0.00 | 75 | 1007.9 |
| 20260506082749 | 65 | 98 | 3.0 | 5.0 | 0.00 | 0.00 | 0.00 | 75 | 1007.7 |
| 20260506082244 | 65 | 128 | 1.0 | 4.0 | 0.00 | 0.00 | 0.00 | 75 | 1007.6 |
| 20260506081742 | 65 | 115 | 6.0 | 7.0 | 0.00 | 0.00 | 0.00 | 75 | 1007.7 |
| 20260506081239 | 65 | 152 | 0.0 | 3.0 | 0.00 | 0.00 | 0.00 | 75 | 1007.8 |
| 20260506080737 | 65 | 124 | 2.0 | 4.0 | 0.00 | 0.00 | 0.00 | 75 | 1007.8 |
| 20260506080233 | 65 | 129 | 2.0 | 4.0 | 0.00 | 0.00 | 0.00 | 75 | 1007.8 |
| 20260506073217 | 66 | 87 | 3.0 | 5.0 | 0.00 | 0.00 | 0.00 | 74 | 1007.9 |
| 20260506072714 | 66 | 148 | 3.0 | 5.0 | 0.00 | 0.00 | 0.00 | 74 | 1007.9 |
| 20260506072212 | 66 | 357 | 2.0 | 4.0 | 0.00 | 0.00 | 0.00 | 74 | 1007.9 |
| 20260506071709 | 66 | 86 | 3.0 | 5.0 | 0.00 | 0.00 | 0.00 | 74 | 1007.9 |
| 20260506071207 | 66 | 85 | 1.0 | 5.0 | 0.00 | 0.00 | 0.00 | 74 | 1008.2 |
| 20260506070704 | 66 | 179 | 3.0 | 4.0 | 0.00 | 0.00 | 0.00 | 74 | 1008.1 |
| 20260506070201 | 66 | 257 | 0.0 | 3.0 | 0.00 | 0.00 | 0.00 | 74 | 1008.2 |
| 20260506062138 | 67 | 104 | 3.0 | 3.0 | 0.00 | 0.00 | 0.00 | 73 | 1008.1 |
| 20260506061633 | 67 | 106 | 2.0 | 4.0 | 0.00 | 0.00 | 0.00 | 72 | 1008.3 |
| 20260506061131 | 67 | 114 | 3.0 | 4.0 | 0.00 | 0.00 | 0.00 | 72 | 1008.3 |
| 20260506060630 | 67 | 113 | 2.0 | 5.0 | 0.00 | 0.00 | 0.00 | 72 | 1008.0 |
| 20260506060126 | 67 | 84 | 2.0 | 3.0 | 0.00 | 0.00 | 0.00 | 71 | 1008.2 |
| 20260506051058 | 69 | 35 | 2.0 | 4.0 | 0.00 | 0.00 | 0.00 | 69 | 1008.7 |
| 20260506050556 | 69 | 240 | 1.0 | 4.0 | 0.00 | 0.00 | 0.00 | 68 | 1008.7 |
| 20260506045046 | 69 | 120 | 2.0 | 4.0 | 0.00 | 0.00 | 0.00 | 67 | 1008.8 |
| 20260506044545 | 69 | 98 | 2.0 | 4.0 | 0.00 | 0.00 | 0.00 | 67 | 1008.9 |
| 20260506044041 | 69 | 82 | 2.0 | 3.0 | 0.00 | 0.00 | 0.00 | 66 | 1008.6 |
| 20260506043538 | 70 | 70 | 1.0 | 5.0 | 0.00 | 0.00 | 0.00 | 66 | 1008.7 |
| 20260506043037 | 70 | 227 | 1.0 | 4.0 | 0.00 | 0.00 | 0.00 | 65 | 1008.6 |
| 20260506042535 | 70 | 117 | 2.0 | 4.0 | 0.00 | 0.00 | 0.00 | 64 | 1008.6 |
| 20260506042033 | 70 | 207 | 0.0 | 4.0 | 0.00 | 0.00 | 0.00 | 64 | 1008.7 |
| 20260506041531 | 70 | 105 | 2.0 | 4.0 | 0.00 | 0.00 | 0.00 | 64 | 1008.5 |
| 20260506041028 | 70 | 83 | 2.0 | 2.0 | 0.00 | 0.00 | 0.00 | 63 | 1008.7 |
| 20260506040526 | 70 | 128 | 0.0 | 3.0 | 0.00 | 0.00 | 0.00 | 63 | 1008.7 |
| 20260506040021 | 70 | 96 | 1.0 | 2.0 | 0.00 | 0.00 | 0.00 | 62 | 1008.8 |
| 20260506035518 | 70 | 61 | 1.0 | 3.0 | 0.00 | 0.00 | 0.00 | 61 | 1008.7 |
| 20260506035015 | 70 | 12 | 0.0 | 3.0 | 0.00 | 0.00 | 0.00 | 62 | 1008.4 |
| 20260506034513 | 71 | 55 | 0.0 | 5.0 | 0.00 | 0.00 | 0.00 | 61 | 1008.5 |
| 20260506034009 | 71 | 108 | 2.0 | 3.0 | 0.00 | 0.00 | 0.00 | 60 | 1008.7 |
| 20260506033507 | 71 | 117 | 0.0 | 3.0 | 0.00 | 0.00 | 0.00 | 60 | 1008.8 |
| 20260506033004 | 71 | 39 | 2.0 | 3.0 | 0.00 | 0.00 | 0.00 | 59 | 1008.6 |
| 20260506032501 | 71 | 117 | 0.0 | 3.0 | 0.00 | 0.00 | 0.00 | 58 | 1008.8 |
| 20260506031957 | 71 | 94 | 3.0 | 3.0 | 0.00 | 0.00 | 0.00 | 57 | 1008.6 |
| 20260506031455 | 71 | 36 | 2.0 | 4.0 | 0.00 | 0.00 | 0.00 | 57 | 1008.5 |
| 20260506030952 | 71 | 106 | 2.0 | 3.0 | 0.00 | 0.00 | 0.00 | 57 | 1008.6 |
| 20260506030450 | 71 | 88 | 2.0 | 3.0 | 0.00 | 0.00 | 0.00 | 57 | 1008.6 |
| 20260506025947 | 71 | 34 | 0.0 | 3.0 | 0.00 | 0.00 | 0.00 | 56 | 1008.8 |
| 20260506025444 | 71 | 161 | 1.0 | 2.0 | 0.00 | 0.00 | 0.00 | 55 | 1008.6 |
| 20260506024940 | 72 | 57 | 2.0 | 4.0 | 0.00 | 0.00 | 0.00 | 55 | 1008.9 |
| 20260506024437 | 72 | 111 | 3.0 | 4.0 | 0.00 | 0.00 | 0.00 | 55 | 1008.8 |
| 20260506023933 | 72 | 105 | 0.0 | 2.0 | 0.00 | 0.00 | 0.00 | 54 | 1008.8 |
| 20260506023430 | 72 | 143 | 2.0 | 3.0 | 0.00 | 0.00 | 0.00 | 54 | 1008.9 |
| 20260506022926 | 72 | 207 | 2.0 | 3.0 | 0.00 | 0.00 | 0.00 | 54 | 1008.7 |
| 20260506022424 | 72 | 89 | 0.0 | 2.0 | 0.00 | 0.00 | 0.00 | 53 | 1008.7 |
| 20260506021922 | 72 | 132 | 0.0 | 1.0 | 0.00 | 0.00 | 0.00 | 53 | 1009.2 |
| 20260506021419 | 73 | 89 | 0.0 | 2.0 | 0.00 | 0.00 | 0.00 | 52 | 1008.9 |
| 20260506020916 | 73 | 122 | 0.0 | 2.0 | 0.00 | 0.00 | 0.00 | 51 | 1008.8 |
| 20260506020414 | 73 | 128 | 0.0 | 2.0 | 0.00 | 0.00 | 0.00 | 51 | 1008.4 |
| 20260506015911 | 73 | 89 | 0.0 | 2.0 | 0.00 | 0.00 | 0.00 | 51 | 1008.7 |
| 20260506015408 | 73 | 209 | 3.0 | 3.0 | 0.00 | 0.00 | 0.00 | 50 | 1008.8 |
| 20260506014905 | 73 | 265 | 3.0 | 3.0 | 0.00 | 0.00 | 0.00 | 50 | 1008.6 |
| 20260506014402 | 73 | 102 | 1.0 | 3.0 | 0.00 | 0.00 | 0.00 | 50 | 1008.7 |
| 20260506013859 | 73 | 133 | 3.0 | 3.0 | 0.00 | 0.00 | 0.00 | 49 | 1008.5 |
| 20260506013357 | 73 | 89 | 0.0 | 1.0 | 0.00 | 0.00 | 0.00 | 49 | 1008.5 |
| 20260506012852 | 73 | 72 | 1.0 | 2.0 | 0.00 | 0.00 | 0.00 | 49 | 1008.5 |
| 20260506012349 | 74 | 95 | 1.0 | 3.0 | 0.00 | 0.00 | 0.00 | 48 | 1008.5 |
| 20260506011846 | 74 | 256 | 2.0 | 2.0 | 0.00 | 0.00 | 0.00 | 49 | 1008.2 |
| 20260506011343 | 74 | 117 | 2.0 | 2.0 | 0.00 | 0.00 | 0.00 | 48 | 1008.5 |
| 20260506010840 | 74 | 116 | 0.0 | 1.0 | 0.00 | 0.00 | 0.00 | 48 | 1008.1 |
| 20260506010339 | 74 | 89 | 0.0 | 2.0 | 0.00 | 0.00 | 0.00 | 48 | 1008.1 |
| 20260506005835 | 75 | 41 | 1.0 | 2.0 | 0.00 | 0.00 | 0.00 | 47 | 1008.0 |
| 20260506005332 | 74 | 113 | 5.0 | 5.0 | 0.00 | 0.00 | 0.00 | 47 | 1008.1 |
| 20260506004828 | 75 | 114 | 0.0 | 3.0 | 0.00 | 0.00 | 0.00 | 47 | 1007.9 |
| 20260506004326 | 75 | 89 | 0.0 | 3.0 | 0.00 | 0.00 | 0.00 | 46 | 1008.0 |
| 20260506003822 | 75 | 211 | 3.0 | 3.0 | 0.00 | 0.00 | 0.00 | 45 | 1008.0 |
| 20260506003318 | 75 | 355 | 1.0 | 4.0 | 0.00 | 0.00 | 0.00 | 45 | 1007.7 |
| 20260506002814 | 75 | 122 | 0.0 | 5.0 | 0.00 | 0.00 | 0.00 | 44 | 1007.9 |
| 20260506002311 | 76 | 160 | 0.0 | 3.0 | 0.00 | 0.00 | 0.00 | 44 | 1007.8 |
| 20260506001807 | 76 | 115 | 2.0 | 3.0 | 0.00 | 0.00 | 0.00 | 43 | 1007.7 |
| 20260506001304 | 76 | 79 | 2.0 | 2.0 | 0.00 | 0.00 | 0.00 | 42 | 1007.8 |
| 20260506000801 | 77 | 255 | 0.0 | 3.0 | 0.00 | 0.00 | 0.00 | 42 | 1007.7 |
| 20260506000259 | 77 | 198 | 0.0 | 2.0 | 0.00 | 0.00 | 0.00 | 41 | 1007.5 |
| 20260505235755 | 77 | 128 | 1.0 | 3.0 | 0.00 | 0.00 | 0.00 | 41 | 1007.5 |
| 20260505235253 | 77 | 27 | 2.0 | 3.0 | 0.00 | 0.00 | 0.00 | 41 | 1007.5 |
| 20260505234750 | 77 | 167 | 1.0 | 4.0 | 0.00 | 0.00 | 0.00 | 41 | 1007.4 |
| 20260505234247 | 77 | 210 | 0.0 | 3.0 | 0.00 | 0.00 | 0.00 | 41 | 1007.3 |
| 20260505233744 | 78 | 117 | 2.0 | 6.0 | 0.00 | 0.00 | 0.00 | 40 | 1007.3 |
| 20260505233242 | 78 | 209 | 1.0 | 3.0 | 0.00 | 0.00 | 0.00 | 40 | 1007.2 |
| 20260505232739 | 78 | 134 | 1.0 | 4.0 | 0.00 | 0.00 | 0.00 | 39 | 1007.1 |
| 20260505232236 | 78 | 147 | 2.0 | 3.0 | 0.00 | 0.00 | 0.00 | 39 | 1007.2 |
| 20260505231732 | 79 | 219 | 0.0 | 3.0 | 0.00 | 0.00 | 0.00 | 39 | 1007.2 |
| 20260505231232 | 79 | 260 | 0.0 | 3.0 | 0.00 | 0.00 | 0.00 | 40 | 1007.1 |
| 20260505230729 | 79 | 248 | 0.0 | 2.0 | 0.00 | 0.00 | 0.00 | 39 | 1007.0 |
| 20260505230226 | 79 | 288 | 1.0 | 4.0 | 0.00 | 0.00 | 0.00 | 38 | 1007.0 |
| 20260505225722 | 79 | 145 | 0.0 | 3.0 | 0.00 | 0.00 | 0.00 | 38 | 1007.1 |
| 20260505225220 | 79 | 106 | 1.0 | 5.0 | 0.00 | 0.00 | 0.00 | 38 | 1007.3 |
| 20260505224715 | 79 | 242 | 1.0 | 3.0 | 0.00 | 0.00 | 0.00 | 38 | 1006.8 |
| 20260505224213 | 79 | 166 | 0.0 | 3.0 | 0.00 | 0.00 | 0.00 | 37 | 1007.0 |
| 20260505223710 | 80 | 314 | 2.0 | 2.0 | 0.00 | 0.00 | 0.00 | 37 | 1007.0 |
| 20260505223206 | 80 | 193 | 1.0 | 4.0 | 0.00 | 0.00 | 0.00 | 37 | 1006.9 |
| 20260505222702 | 80 | 96 | 2.0 | 2.0 | 0.00 | 0.00 | 0.00 | 37 | 1007.0 |
| 20260505222158 | 80 | 172 | 0.0 | 3.0 | 0.00 | 0.00 | 0.00 | 36 | 1007.0 |
| 20260505221656 | 81 | 41 | 3.0 | 4.0 | 0.00 | 0.00 | 0.00 | 35 | 1007.1 |
| 20260505221152 | 80 | 73 | 2.0 | 7.0 | 0.00 | 0.00 | 0.00 | 36 | 1007.0 |
| 20260505220649 | 80 | 52 | 0.0 | 2.0 | 0.00 | 0.00 | 0.00 | 35 | 1006.8 |
| 20260505220147 | 81 | 132 | 3.0 | 3.0 | 0.00 | 0.00 | 0.00 | 35 | 1007.0 |
| 20260505215644 | 81 | 319 | 1.0 | 4.0 | 0.00 | 0.00 | 0.00 | 34 | 1007.0 |
| 20260505215142 | 81 | 119 | 0.0 | 5.0 | 0.00 | 0.00 | 0.00 | 35 | 1006.9 |
| 20260505214640 | 81 | 75 | 0.0 | 5.0 | 0.00 | 0.00 | 0.00 | 34 | 1006.7 |
| 20260505214137 | 81 | 183 | 2.0 | 8.0 | 0.00 | 0.00 | 0.00 | 34 | 1006.9 |
| 20260505213635 | 82 | 57 | 2.0 | 4.0 | 0.00 | 0.00 | 0.00 | 34 | 1007.0 |
| 20260505213131 | 82 | 195 | 2.0 | 6.0 | 0.00 | 0.00 | 0.00 | 33 | 1006.9 |
| 20260505212627 | 82 | 57 | 3.0 | 6.0 | 0.00 | 0.00 | 0.00 | 34 | 1006.8 |